TimePST,TemperatureF,Dew PointF,Humidity,Sea Level PressureIn,VisibilityMPH,Wind Direction,Wind SpeedMPH,Gust SpeedMPH,PrecipitationIn,Events,Conditions,WindDirDegrees,DateUTC
12:15 AM,21.2,19.4,93,30.31,10.0,Calm,Calm,-,N/A,,Clear,0,2014-01-02 08:15:00
12:35 AM,23.0,21.2,93,30.31,10.0,Calm,Calm,-,N/A,,Clear,0,2014-01-02 08:35:00
12:55 AM,21.2,19.4,93,30.31,10.0,Calm,Calm,-,N/A,,Clear,0,2014-01-02 08:55:00
1:15 AM,19.4,15.8,86,30.31,10.0,Calm,Calm,-,N/A,,Clear,0,2014-01-02 09:15:00
1:35 AM,21.2,19.4,93,30.31,10.0,Calm,Calm,-,N/A,,Clear,0,2014-01-02 09:35:00
1:55 AM,23.0,21.2,93,30.31,10.0,Calm,Calm,-,N/A,,Clear,0,2014-01-02 09:55:00
2:15 AM,21.2,19.4,93,30.31,10.0,Calm,Calm,-,N/A,,Clear,0,2014-01-02 10:15:00
2:35 AM,19.4,17.6,93,30.31,10.0,Calm,Calm,-,N/A,,Clear,0,2014-01-02 10:35:00
2:55 AM,21.2,19.4,93,30.31,10.0,Calm,Calm,-,N/A,,Clear,0,2014-01-02 10:55:00
3:15 AM,17.6,15.8,93,30.31,10.0,Calm,Calm,-,N/A,,Clear,0,2014-01-02 11:15:00
3:35 AM,17.6,15.8,93,30.30,10.0,Calm,Calm,-,N/A,,Clear,0,2014-01-02 11:35:00
3:55 AM,19.4,17.6,93,30.29,10.0,Calm,Calm,-,N/A,,Clear,0,2014-01-02 11:55:00
4:15 AM,17.6,14.0,86,30.30,10.0,Calm,Calm,-,N/A,,Clear,0,2014-01-02 12:15:00
4:35 AM,14.0,12.2,93,30.30,10.0,Calm,Calm,-,N/A,,Clear,0,2014-01-02 12:35:00
4:55 AM,17.6,17.6,100,30.31,10.0,Calm,Calm,-,N/A,,Clear,0,2014-01-02 12:55:00
5:15 AM,19.4,17.6,93,30.30,10.0,Calm,Calm,-,N/A,,Clear,0,2014-01-02 13:15:00
5:35 AM,17.6,15.8,93,30.30,10.0,Calm,Calm,-,N/A,,Clear,0,2014-01-02 13:35:00
6:55 AM,15.8,14.0,93,30.30,10.0,Calm,Calm,-,N/A,,Clear,0,2014-01-02 14:55:00
7:55 AM,15.8,14.0,93,30.31,10.0,Calm,Calm,-,N/A,,Clear,0,2014-01-02 15:55:00
8:50 AM,21.2,19.4,93,30.32,10.0,Calm,Calm,-,N/A,,Clear,0,2014-01-02 16:50:00
9:55 AM,28.4,23.0,80,30.32,10.0,Calm,Calm,-,N/A,,Clear,0,2014-01-02 17:55:00
10:50 AM,35.6,24.8,65,30.31,10.0,Calm,Calm,-,N/A,,Clear,0,2014-01-02 18:50:00
11:45 AM,39.2,24.8,56,30.27,10.0,Calm,Calm,-,N/A,,Clear,0,2014-01-02 19:45:00
12:50 PM,44.6,26.6,49,30.23,10.0,Calm,Calm,-,N/A,,Clear,0,2014-01-02 20:50:00
1:55 PM,51.8,28.4,41,30.21,10.0,Calm,Calm,-,N/A,,Clear,0,2014-01-02 21:55:00
2:55 PM,53.6,23.0,30,30.20,10.0,Calm,Calm,-,N/A,,Clear,0,2014-01-02 22:55:00
3:50 PM,53.6,21.2,28,30.20,10.0,Calm,Calm,-,N/A,,Scattered Clouds,0,2014-01-02 23:50:00
4:55 PM,42.8,24.8,49,30.21,10.0,Calm,Calm,-,N/A,,Clear,0,2014-01-03 00:55:00
5:15 PM,35.6,23.0,60,30.22,10.0,Calm,Calm,-,N/A,,Clear,0,2014-01-03 01:15:00
5:35 PM,35.6,26.6,70,30.22,10.0,Calm,Calm,-,N/A,,Clear,0,2014-01-03 01:35:00
5:55 PM,33.8,26.6,75,30.22,10.0,Calm,Calm,-,N/A,,Clear,0,2014-01-03 01:55:00
6:15 PM,32.0,26.6,80,30.22,10.0,Calm,Calm,-,N/A,,Clear,0,2014-01-03 02:15:00
6:35 PM,33.8,24.8,70,30.22,10.0,Calm,Calm,-,N/A,,Clear,0,2014-01-03 02:35:00
6:55 PM,33.8,24.8,70,30.23,10.0,Calm,Calm,-,N/A,,Clear,0,2014-01-03 02:55:00
7:15 PM,32.0,24.8,75,30.23,10.0,SE,3.5,-,N/A,,Clear,130,2014-01-03 03:15:00
7:35 PM,30.2,23.0,75,30.23,10.0,Calm,Calm,-,N/A,,Clear,0,2014-01-03 03:35:00
7:55 PM,30.2,23.0,75,30.23,10.0,Calm,Calm,-,N/A,,Clear,0,2014-01-03 03:55:00
8:15 PM,32.0,23.0,69,30.23,10.0,Calm,Calm,-,N/A,,Clear,0,2014-01-03 04:15:00
8:35 PM,28.4,23.0,80,30.23,10.0,Calm,Calm,-,N/A,,Clear,0,2014-01-03 04:35:00
8:55 PM,26.6,23.0,86,30.23,10.0,Calm,Calm,-,N/A,,Clear,0,2014-01-03 04:55:00
9:15 PM,28.4,23.0,80,30.22,10.0,Calm,Calm,-,N/A,,Clear,0,2014-01-03 05:15:00
9:35 PM,26.6,23.0,86,30.22,10.0,Calm,Calm,-,N/A,,Clear,0,2014-01-03 05:35:00
9:55 PM,28.4,23.0,80,30.22,10.0,Calm,Calm,-,N/A,,Clear,0,2014-01-03 05:55:00
10:15 PM,26.6,23.0,86,30.23,10.0,Calm,Calm,-,N/A,,Clear,0,2014-01-03 06:15:00
10:35 PM,24.8,21.2,86,30.23,10.0,Calm,Calm,-,N/A,,Clear,0,2014-01-03 06:35:00
10:55 PM,26.6,23.0,86,30.23,10.0,Calm,Calm,-,N/A,,Clear,0,2014-01-03 06:55:00
11:15 PM,23.0,21.2,93,30.23,10.0,Calm,Calm,-,N/A,,Clear,0,2014-01-03 07:15:00
11:35 PM,26.6,21.2,80,30.22,10.0,Calm,Calm,-,N/A,,Clear,0,2014-01-03 07:35:00
11:55 PM,26.6,21.2,80,30.21,10.0,Calm,Calm,-,N/A,,Clear,0,2014-01-03 07:55:00